Back to catalog

STARLINK-31854

AliveCommunicationsVLEO
NORAD 59671·PAYLOAD·🇺🇸 United States

Launched May 6, 2024 from Cape Canaveral Space Force Station

Loading…

Next Passes (next 24 hours)

TLE

FreshSource: CelesTrak SupGP

Epoch: Sep 14, 2026, 21:00 UTC

1 59671C 24084T   26257.87548611  .00045334  00000+0  16417-2 0  2574
2 59671  43.0045  20.3482 0001911 277.7220  76.3956 15.27560368    14

Track STARLINK-31854 in real time with AllMySat

Download on the App Store